Location: Corralito
(10.2667°N, 66.9500°W)
Time: 01:24:27
(UTC+00:00)

GPS 2-12 Rocket1 - Visible Passes

Search period start: 07 December 2023 00:00
Search period end: 17 December 2023 00:00
Orbit: 578 x 639 km, 20.0° (Epoch: 06 December)

Date Brightness Start Highest point End Pass type
(mag) Time Alt. Az. Time Alt. Az. Time Alt. Az.
07 Dec 5.6 00:29:33 10° SW 00:30:50 16° SSW 00:30:50 16° SSW visible
07 Dec 3.3 09:10:04 41° NNW 09:11:02 50° NNE 09:15:16 10° E visible
07 Dec 5.3 23:00:03 10° SSW 23:02:42 15° SSE 23:05:20 10° SE visible
08 Dec 5.8 00:41:28 10° SW 00:42:27 16° SW 00:42:27 16° SW visible
08 Dec 2.9 09:21:42 35° WNW 09:23:29 78° NNE 09:27:51 10° ESE visible
08 Dec 4.7 23:11:18 10° SSW 23:15:06 24° SSE 23:17:17 17° ESE visible
09 Dec 6.1 00:53:38 10° WSW 00:54:04 12° WSW 00:54:04 12° WSW visible
09 Dec 6.0 07:56:34 11° E 07:56:34 11° E 07:56:47 10° E visible
09 Dec 3.1 09:33:20 24° W 09:35:53 65° SSW 09:40:12 10° ESE visible
09 Dec 4.0 23:23:04 10° SW 23:27:28 38° SSE 23:28:54 30° ESE visible
10 Dec 5.5 08:08:12 18° E 08:08:12 18° E 08:09:25 10° E visible
10 Dec 3.9 09:44:58 14° W 09:48:15 38° SSW 09:52:19 10° SE visible
10 Dec 3.2 23:35:08 10° WSW 23:39:51 63° SSE 23:40:31 55° ESE visible
11 Dec 4.9 08:19:49 27° ESE 08:19:49 27° ESE 08:21:52 10° ESE visible
11 Dec 4.6 09:57:08 10° WSW 10:00:36 23° SSW 10:04:05 10° SSE visible
11 Dec 3.0 23:47:27 10° WSW 23:52:07 82° NW 23:52:07 82° NW visible
12 Dec 4.5 08:31:25 32° SSE 08:31:25 32° SSE 08:34:04 10° SE visible
12 Dec 5.2 10:10:43 10° SW 10:13:00 14° SSW 10:15:16 10° S visible
12 Dec 3.8 23:59:58 10° W 00:03:43 46° NW 00:03:43 46° NW visible
13 Dec 4.5 08:43:01 26° S 08:43:01 26° S 08:45:58 10° SE visible
13 Dec 3.2 22:28:54 10° WSW 22:33:39 83° SSE 22:38:24 10° ENE visible
14 Dec 4.7 00:12:38 10° W 00:15:19 28° WNW 00:15:19 28° WNW visible
14 Dec 5.0 08:54:36 17° SSW 08:54:36 17° SSW 08:57:28 10° SSE visible
14 Dec 3.3 22:41:21 10° W 22:46:01 64° NNW 22:50:07 14° ENE visible
15 Dec 5.4 00:25:23 10° WNW 00:26:53 18° WNW 00:26:53 18° WNW visible
15 Dec 5.5 09:06:27 10° SSW 09:06:57 10° SSW 09:07:27 10° SSW visible
15 Dec 3.7 22:53:57 10° W 22:58:28 44° NNW 23:01:41 18° NE visible
16 Dec 5.9 00:38:09 10° WNW 00:38:27 11° WNW 00:38:27 11° WNW visible
16 Dec 4.1 23:06:40 10° WNW 23:10:56 33° N 23:13:15 21° NE visible
